Weather History for George, South Africa

Change the Weather History Date:

Saturday, November 10, 2012

  Actual Average Record
Temperature  
Mean Temperature 62 °F -  
Max Temperature 72 °F 70 °F 80 °F (1998)
Min Temperature 53 °F 54 °F 46 °F (2002)
Degree Days  
Heating Degree Days 2    
Growing Degree Days 12 (Base 50)    
Moisture  
Dew Point 56 °F    
Average Humidity 77    
Maximum Humidity 94    
Minimum Humidity 52    
Precipitation  
Precipitation 0.00 in - - ()
Sea Level Pressure  
Sea Level Pressure 29.99 in    
Wind  
Wind Speed 5 mph ()    
Max Wind Speed 14 mph    
Max Gust Speed -    
Visibility 8.1 miles    
Events      
Averages and records for this station are not official NWS values.
T = Trace of Precipitation, MM = Missing Value Source: Averaged Metar Reports

Daily Weather History Graph

Daily Weather History Graph

Search for Another Location

Airport:

Trip Planner

Search our weather history database for the weather conditions in past years. The results will help you decide how hot, cold, wet, or windy it might be!

Date:

Astronomy

Nov. 10, 2012 Rise Set
Actual Time 5:21 AM SAST 7:07 PM SAST
Civil Twilight 4:54 AM SAST 7:34 PM SAST
Nautical Twilight 4:21 AM SAST 8:07 PM SAST
Astronomical Twilight 3:47 AM SAST 8:42 PM SAST
Moon 2:41 AM SAST (11/10) 3:23 PM SAST (11/10)
Length of Visible Light 14h 40m
Length of Day
13h 45m
Waning Crescent, 17% of the Moon is Illuminated
Nov 10
Waning Crescent
Nov 14
New
Nov 20
First Quarter
Nov 28
Full
Dec 6
Last Quarter

Hourly Weather History & Observations

Time (SAST) Temp. Dew Point Humidity Pressure Visibility Wind Dir Wind Speed Gust Speed Precip Events Conditions
12:00 AM 60.8 °F 57.2 °F 88% 30.04 in 6.2 mi WNW 6.9 mph - N/A   Mostly Cloudy
1:00 AM 59.0 °F 55.4 °F 88% 30.04 in - NNW 6.9 mph - N/A   Clear
2:00 AM 57 °F 52 °F 79% 30.02 in 6 mi NW 3.5 mph - -  
2:00 AM 57.2 °F 51.8 °F 82% 30.01 in - NW 3.5 mph - N/A   Clear
3:00 AM 57.2 °F 51.8 °F 82% 30.01 in - NNW 3.5 mph - N/A   Clear
4:00 AM 55.4 °F 50.0 °F 82% 30.01 in - NNW 3.5 mph - N/A   Clear
5:00 AM 53 °F 49 °F 84% 30.02 in 12 mi NW 3.5 mph - -  
5:00 AM 53.6 °F 50.0 °F 88% 30.01 in - NW 3.5 mph - N/A   Clear
6:00 AM 53.6 °F 50.0 °F 88% 30.04 in - NNW 2.3 mph - N/A   Clear
7:00 AM 59.0 °F 53.6 °F 82% 30.04 in - Variable 2.3 mph - N/A   Clear
8:00 AM 65 °F 57 °F 68% 30.06 in 12 mi SSE 2.3 mph - -   Scattered Clouds
8:00 AM 64.4 °F 59.0 °F 83% 30.04 in 6.2 mi Variable 2.3 mph - N/A   Partly Cloudy
9:00 AM 68.0 °F 57.2 °F 68% 30.04 in 6.2 mi Variable 3.5 mph - N/A   Partly Cloudy
10:00 AM 68.0 °F 59.0 °F 73% 30.04 in 6.2 mi SE 8.1 mph - N/A   Partly Cloudy
11:00 AM 69 °F 58 °F 59% 30.04 in 12 mi SSE 6.9 mph - -   Scattered Clouds
11:00 AM 69.8 °F 59.0 °F 68% 30.04 in 6.2 mi SSE 8.1 mph - N/A   Partly Cloudy
12:00 PM 71.6 °F 59.0 °F 64% 30.01 in 6.2 mi SE 11.5 mph - N/A   Partly Cloudy
1:00 PM 71.6 °F 60.8 °F 69% 29.98 in 6.2 mi SE 10.4 mph - N/A   Partly Cloudy
2:00 PM 72 °F 58 °F 52% 29.96 in 12 mi ESE 12.7 mph - -   Scattered Clouds
2:00 PM 71.6 °F 57.2 °F 60% 29.98 in 6.2 mi East 10.4 mph - N/A   Partly Cloudy
3:00 PM 69.8 °F 57.2 °F 64% 29.95 in 6.2 mi East 11.5 mph - N/A   Partly Cloudy
4:00 PM 69.8 °F 57.2 °F 64% 29.92 in - East 12.7 mph - N/A   Clear
5:00 PM 68 °F 58 °F 62% 29.93 in 12 mi ESE 13.8 mph - -  
5:00 PM 68.0 °F 57.2 °F 68% 29.95 in - East 9.2 mph - N/A   Clear
6:00 PM 64.4 °F 57.2 °F 77% 29.95 in - East 10.4 mph - N/A   Clear
7:00 PM 62.6 °F 57.2 °F 82% 29.95 in - ESE 5.8 mph - N/A   Clear
8:00 PM 60 °F 57 °F 85% 29.96 in 12 mi ESE 4.6 mph - -  
8:00 PM 59.0 °F 57.2 °F 94% 29.95 in - ESE 4.6 mph - N/A   Clear
9:00 PM 59.0 °F 57.2 °F 94% 29.95 in - ENE 5.8 mph - N/A   Clear
10:00 PM 59.0 °F 57.2 °F 94% 29.95 in - Calm Calm - N/A   Clear
11:00 PM 57.2 °F 55.4 °F 94% 29.92 in 3.7 mi West 3.5 mph - N/A   Unknown